FW9915 Weather Reports


time (UTC)temp
F
wind
direction
speed
knots
gust
knots
rain 1hr
in
rain 24hr
in
rain mn
in
humidity
%
barometer
mb
20260903141520 74 135 0.9 1.7 0.00 0.00 0.00 76 1016.0
20260903140559 74 159 0.9 3.5 0.00 0.00 0.00 77 1015.8
20260903135600 75 162 1.7 3.5 0.00 0.00 0.00 76 1015.9
20260903134543 75 180 2.6 3.5 0.00 0.00 0.00 75 1015.9
20260903133520 75 120 2.6 6.1 0.00 0.00 0.00 75 1015.9
20260903132520 76 128 1.7 3.5 0.00 0.00 0.00 72 1015.9
20260903131552 76 117 3.5 6.1 0.00 0.00 0.00 71 1015.8
20260903130539 77 124 2.6 6.1 0.00 0.00 0.00 71 1015.8
20260903125519 77 119 2.6 3.5 0.00 0.00 0.00 72 1016.0
20260903124519 77 143 2.6 3.5 0.00 0.00 0.00 71 1016.1
20260903123519 77 150 2.6 6.1 0.00 0.00 0.00 73 1016.1
20260903122520 75 136 3.5 7.8 0.00 0.00 0.00 75 1016.1
20260903121519 76 172 2.6 6.1 0.00 0.00 0.00 73 1016.1
20260903120520 77 182 4.3 7.8 0.00 0.00 0.00 69 1016.2
20260903115540 77 137 2.6 6.1 0.00 0.00 0.00 70 1016.3
20260903114520 76 141 4.3 7.8 0.00 0.00 0.00 69 1016.4
20260903113519 77 159 3.5 7.8 0.00 0.00 0.00 66 1016.4
20260903112519 77 137 3.5 6.1 0.00 0.00 0.00 66 1016.5
20260903111520 76 140 3.5 6.1 0.00 0.00 0.00 64 1016.5
20260903110519 76 133 4.3 6.1 0.00 0.00 0.00 62 1016.6
20260903105519 77 127 2.6 6.1 0.00 0.00 0.00 61 1016.7
20260903104600 78 125 3.5 6.1 0.00 0.00 0.00 60 1016.7
20260903103532 78 173 3.5 6.1 0.00 0.00 0.00 59 1016.8
20260903102519 78 161 2.6 6.1 0.00 0.00 0.00 60 1017.0
20260903101520 78 168 2.6 6.1 0.00 0.00 0.00 60 1017.0
20260903100519 78 183 3.5 6.1 0.00 0.00 0.00 60 1017.1
20260903095520 77 138 3.5 6.1 0.00 0.00 0.00 62 1017.1
20260903094520 78 186 3.5 6.1 0.00 0.00 0.00 59 1017.1
20260903093532 79 183 2.6 3.5 0.00 0.00 0.00 56 1017.1
20260903092540 79 182 3.5 6.1 0.00 0.00 0.00 56 1017.2
20260903091520 78 158 2.6 3.5 0.00 0.00 0.00 60 1017.3
20260903090532 78 153 1.7 3.5 0.00 0.00 0.00 60 1017.3
20260903085544 78 174 2.6 6.1 0.00 0.00 0.00 58 1017.4
20260903084520 78 158 0.9 1.7 0.00 0.00 0.00 58 1017.5
20260903083531 78 152 1.7 3.5 0.00 0.00 0.00 57 1017.5
20260903082519 77 193 1.7 6.1 0.00 0.00 0.00 58 1017.6
20260903081544 78 173 2.6 6.1 0.00 0.00 0.00 61 1017.5
20260903080543 77 169 3.5 6.1 0.00 0.00 0.00 62 1017.5
20260903075520 78 170 1.7 3.5 0.00 0.00 0.00 63 1017.4
20260903074520 77 180 1.7 1.7 0.00 0.00 0.00 63 1017.4
20260903073556 77 180 2.6 3.5 0.00 0.00 0.00 62 1017.5
20260903072552 78 180 0.9 3.5 0.00 0.00 0.00 60 1017.5
20260903071531 78 180 1.7 3.5 0.00 0.00 0.00 60 1017.5
20260903070520 76 180 1.7 3.5 0.00 0.00 0.00 62 1017.5
20260903065519 76 180 1.7 3.5 0.00 0.00 0.00 62 1017.4
20260903064540 78 180 1.7 3.5 0.00 0.00 0.00 60 1017.4
20260903063520 79 114 1.7 3.5 0.00 0.00 0.00 53 1017.3
20260903062520 79 23 1.7 3.5 0.00 0.00 0.00 51 1017.4
20260903061520 80 0.0 0.0 0.00 0.00 0.00 49 1017.3
20260903060543 83 0.0 0.0 0.00 0.00 0.00 50 1017.3
20260903055520 80 0.0 0.0 0.00 0.00 0.00 55 1017.4
20260903054532 78 0.0 0.0 0.00 0.00 0.00 61 1017.3
20260903053519 76 23 0.9 1.7 0.00 0.00 0.00 66 1017.2
20260903052520 75 23 0.9 3.5 0.00 0.00 0.00 67 1017.2
20260903051520 74 23 1.7 3.5 0.00 0.00 0.00 71 1017.3
20260903050540 73 23 0.0 1.7 0.00 0.00 0.00 73 1017.3
20260903045520 70 0.0 0.0 0.00 0.00 0.00 85 1017.4
20260903044520 67 0.0 0.0 0.00 0.00 0.00 93 1017.3
20260903043520 64 23 0.9 1.7 0.00 0.00 0.00 98 1017.3
20260903042520 64 23 1.7 3.5 0.00 0.00 0.00 99 1017.3
20260903041520 63 0.0 0.0 0.00 0.00 0.00 99 1017.3
20260903040540 62 0.0 0.0 0.00 0.00 0.00 99 1017.3
20260903035519 62 0.0 0.0 0.00 0.00 0.00 99 1017.2
20260903034520 62 0.0 0.0 0.00 0.00 0.00 99 1017.0
20260903033519 62 0.0 0.0 0.00 0.00 0.00 99 1017.1
20260903032552 62 0.0 0.0 0.00 0.00 0.00 99 1017.0
20260903031520 62 0.0 0.0 0.00 0.00 0.00 99 1017.0
20260903025552 62 0.0 0.0 0.00 0.00 0.00 99 1017.1
20260903024520 61 0.0 0.0 0.00 0.00 0.00 99 1017.0
20260903023520 62 0.0 0.0 0.00 0.00 0.00 99 1016.9
20260903022540 62 0.0 0.0 0.00 0.00 0.00 99 1017.0
20260903021520 62 0.0 0.0 0.00 0.00 0.00 99 1017.1
20260903020532 62 0.0 0.0 0.00 0.00 0.00 99 1017.2
20260903015519 62 0.0 0.0 0.00 0.00 0.00 99 1017.1
20260903014532 62 0.0 0.0 0.00 0.00 0.00 99 1017.1
20260903013519 62 23 0.0 1.7 0.00 0.00 0.00 99 1017.1
20260903012544 63 0.0 0.0 0.00 0.00 0.00 99 1017.0
20260903011520 63 0.0 0.0 0.00 0.00 0.00 99 1017.1
20260903010520 63 0.0 0.0 0.00 0.00 0.00 99 1017.1
20260903005520 63 0.0 0.0 0.00 0.00 0.00 99 1017.1
20260903004520 63 0.0 0.0 0.00 0.00 0.00 99 1017.1
20260903003520 64 0.0 0.0 0.00 0.00 0.00 99 1017.1
20260903002520 64 0.0 0.0 0.00 0.00 0.00 99 1017.0
20260903001520 64 0.0 0.0 0.00 0.00 0.00 99 1017.0
20260903000520 65 0.0 0.0 0.00 0.00 0.00 99 1017.1
20260902235520 64 0.0 0.0 0.00 0.00 0.00 99 1017.0
20260902234540 64 0.0 0.0 0.00 0.00 0.00 99 1017.0
20260902233520 64 0.0 0.0 0.00 0.00 0.00 99 1017.2
20260902232520 65 0.0 0.0 0.00 0.00 0.00 99 1017.3
20260902231540 65 0.0 0.0 0.00 0.00 0.00 99 1017.4
20260902230520 65 0.0 0.0 0.00 0.00 0.00 99 1017.6
20260902225520 65 0.0 0.0 0.00 0.00 0.00 99 1017.6
20260902224520 66 0.0 0.0 0.00 0.00 0.00 99 1017.6
20260902223520 66 0.0 0.0 0.00 0.00 0.00 98 1017.6
20260902222520 66 0.0 0.0 0.00 0.00 0.00 98 1017.7
20260902221532 67 0.0 0.0 0.00 0.00 0.00 98 1017.8
20260902220532 67 0.0 0.0 0.00 0.00 0.00 98 1017.8
20260902215540 68 0.0 0.0 0.00 0.00 0.00 98 1017.9
20260902214532 68 158 0.0 1.7 0.00 0.00 0.00 98 1017.8
20260902213556 68 158 0.9 1.7 0.00 0.00 0.00 98 1017.7
20260902212520 68 158 0.0 1.7 0.00 0.00 0.00 97 1017.7
20260902211616 68 0.0 0.0 0.00 0.00 0.00 97 1017.6
20260902210540 68 0.0 0.0 0.00 0.00 0.00 97 1017.6
20260902205520 68 0.0 0.0 0.00 0.00 0.00 96 1017.6
20260902204520 69 0.0 0.0 0.00 0.00 0.00 96 1017.6
20260902203531 69 0.0 0.0 0.00 0.00 0.00 95 1017.7
20260902202632 69 0.0 0.0 0.00 0.00 0.00 95 1017.7
20260902201520 70 0.0 0.0 0.00 0.00 0.00 95 1017.7
20260902200520 70 0.0 0.0 0.00 0.00 0.00 94 1017.7
20260902195544 70 0.0 0.0 0.00 0.00 0.00 94 1017.7
20260902194520 70 0.0 0.0 0.00 0.00 0.00 94 1017.7
20260902193520 70 158 0.0 1.7 0.00 0.00 0.00 93 1017.8
20260902192532 70 158 0.0 1.7 0.00 0.00 0.00 93 1017.8
20260902191532 70 158 0.9 1.7 0.00 0.00 0.00 93 1017.9
20260902190520 71 0.0 0.0 0.00 0.00 0.00 92 1017.9
20260902185532 71 158 0.0 1.7 0.00 0.00 0.00 92 1017.9
20260902184532 71 158 0.9 1.7 0.00 0.00 0.00 91 1018.0
20260902183544 71 158 0.9 1.7 0.00 0.00 0.00 91 1018.1
20260902182520 71 158 1.7 3.5 0.00 0.00 0.00 90 1018.0
20260902181532 71 160 1.7 3.5 0.00 0.00 0.00 91 1018.0
20260902180520 71 180 1.7 3.5 0.00 0.00 0.00 91 1017.9
20260902175520 71 180 1.7 3.5 0.00 0.00 0.00 91 1017.8
20260902174520 71 180 0.9 3.5 0.00 0.00 0.00 91 1017.7
20260902173532 71 180 0.9 1.7 0.00 0.00 0.00 90 1017.6
20260902172520 71 180 1.7 3.5 0.00 0.00 0.00 90 1017.6
20260902171520 71 169 0.9 3.5 0.00 0.00 0.00 89 1017.5
20260902170532 72 158 0.0 1.7 0.00 0.00 0.00 88 1017.3
20260902165520 72 180 0.9 3.5 0.00 0.00 0.00 87 1017.3
20260902164520 72 180 1.7 6.1 0.00 0.00 0.00 87 1017.4
20260902163544 72 197 0.9 3.5 0.00 0.00 0.00 86 1017.4
20260902162520 72 180 0.9 3.5 0.00 0.00 0.00 86 1017.5
20260902161520 73 158 0.9 3.5 0.00 0.00 0.00 86 1017.5
20260902160520 73 189 1.7 3.5 0.00 0.00 0.00 85 1017.6
20260902155520 73 195 1.7 3.5 0.00 0.00 0.00 84 1017.6
20260902154520 74 180 1.7 3.5 0.00 0.00 0.00 84 1017.7
20260902153520 74 173 3.5 6.1 0.00 0.00 0.00 83 1017.7
20260902152520 74 194 2.6 3.5 0.00 0.00 0.00 82 1017.7
20260902151520 76 190 1.7 3.5 0.00 0.00 0.00 80 1017.7
20260902150600 77 183 1.7 3.5 0.00 0.00 0.00 79 1017.7
20260902145520 76 193 1.7 7.8 0.00 0.00 0.00 81 1017.8
20260902144520 76 141 1.7 6.1 0.00 0.00 0.00 81 1017.8
20260902143520 76 189 4.3 7.8 0.00 0.00 0.00 80 1017.7
20260902142520 76 176 3.5 6.1 0.00 0.00 0.00 80 1017.8